N6AMQ-1 Weather Reports


time (UTC)temp
C
wind
direction
speed
KPH
gust
KPH
rain 1hr
cm
rain 24hr
cm
rain mn
cm
humidity
%
barometer
mb
20260506021748 16 292 0.0 0.0 0.00 0.03 0.03 69 1015.9
20260506021350 16 202 0.0 0.0 0.00 0.03 0.03 68 1015.9
20260506021248 16 202 0.0 0.0 0.00 0.03 0.03 68 1015.9
20260506020748 16 158 0.0 0.0 0.00 0.03 0.03 69 1015.9
20260506020248 16 225 0.0 0.0 0.00 0.03 0.03 68 1015.9
20260506015748 16 270 0.0 0.0 0.00 0.03 0.03 69 1015.9
20260506015351 16 292 0.0 0.0 0.00 0.03 0.03 69 1015.9
20260506014748 16 270 0.0 0.0 0.00 0.03 0.03 69 1015.9
20260506014248 16 158 0.0 0.0 0.00 0.03 0.03 70 1015.9
20260506013748 17 315 0.0 0.0 0.00 0.03 0.03 69 1015.9
20260506013350 17 225 0.0 0.0 0.00 0.03 0.03 68 1015.9
20260506013248 17 180 0.0 0.0 0.00 0.03 0.03 68 1015.9
20260506011748 17 225 0.0 0.0 0.00 0.03 0.03 67 1015.9
20260506011350 17 202 0.0 0.0 0.00 0.03 0.03 68 1015.9
20260506011248 17 180 0.0 1.6 0.00 0.03 0.03 68 1015.9
20260506010748 17 270 0.0 0.0 0.00 0.03 0.03 68 1015.9
20260506010248 17 225 0.0 0.0 0.00 0.03 0.03 68 1015.9
20260506005748 17 158 0.0 0.0 0.00 0.03 0.03 68 1015.9
20260506005350 17 248 0.0 3.2 0.00 0.03 0.03 67 1015.9
20260506005248 17 315 0.0 0.0 0.00 0.03 0.03 68 1015.9
20260506004748 17 315 1.6 1.6 0.00 0.03 0.03 68 1015.9
20260506004248 17 158 1.6 0.0 0.00 0.03 0.03 67 1015.9
20260506003451 17 292 0.0 0.0 0.00 0.03 0.03 68 1015.9
20260506003350 17 292 0.0 0.0 0.00 0.03 0.03 68 1015.9
20260506003248 17 270 0.0 0.0 0.00 0.03 0.03 67 1015.9
20260506002748 17 22 1.6 0.0 0.00 0.03 0.03 68 1015.9
20260506002248 17 90 0.0 3.2 0.00 0.03 0.03 68 1015.9
20260506001748 17 45 0.0 0.0 0.00 0.03 0.03 68 1015.9
20260506001350 17 315 0.0 0.0 0.00 0.03 0.03 68 1015.9
20260506000748 17 180 0.0 3.2 0.00 0.03 0.03 68 1015.9
20260506000248 17 315 6.4 6.4 0.00 0.03 0.03 68 1015.9
20260505235748 17 270 4.8 6.4 0.00 0.03 0.03 67 1015.9
20260505235350 17 270 3.2 9.7 0.00 0.03 0.03 67 1015.9
20260505234748 17 270 3.2 3.2 0.00 0.03 0.03 66 1015.9
20260505234248 17 292 6.4 4.8 0.00 0.03 0.03 66 1015.9
20260505233748 17 270 6.4 3.2 0.00 0.03 0.03 66 1015.9
20260505233350 17 315 3.2 4.8 0.00 0.03 0.03 66 1015.9
20260505233248 17 225 0.0 0.0 0.00 0.03 0.03 66 1015.9
20260505232748 17 338 8.0 1.6 0.00 0.03 0.03 65 1015.9
20260505232248 17 292 3.2 4.8 0.00 0.03 0.03 66 1015.9
20260505231748 17 270 0.0 0.0 0.00 0.03 0.03 66 1015.9
20260505231350 17 292 0.0 4.8 0.00 0.03 0.03 66 1015.9
20260505231248 17 315 0.0 0.0 0.00 0.03 0.03 66 1015.9
20260505230748 17 315 4.8 3.2 0.00 0.03 0.03 65 1015.9
20260505225748 17 315 1.6 0.0 0.00 0.03 0.03 65 1015.9
20260505225350 18 270 6.4 12.9 0.00 0.03 0.03 65 1015.9
20260505225248 18 270 6.4 12.9 0.00 0.03 0.03 65 1015.9
20260505224748 18 315 4.8 3.2 0.00 0.03 0.03 64 1015.9
20260505223748 17 270 1.6 4.8 0.00 0.03 0.03 64 1015.9
20260505223351 17 270 3.2 3.2 0.00 0.03 0.03 64 1015.9
20260505223248 17 270 3.2 1.6 0.00 0.03 0.03 65 1015.9
20260505222748 17 338 1.6 1.6 0.00 0.03 0.03 64 1015.9
20260505222248 17 248 1.6 1.6 0.00 0.03 0.03 64 1015.9
20260505221748 17 270 3.2 0.0 0.00 0.03 0.03 64 1015.9
20260505221350 17 315 4.8 6.4 0.00 0.03 0.03 64 1015.9
20260505221248 17 292 3.2 6.4 0.00 0.03 0.03 65 1015.9
20260505220248 17 270 3.2 6.4 0.00 0.03 0.03 65 1015.9
20260505215748 17 292 3.2 0.0 0.00 0.03 0.03 65 1015.9
20260505215436 17 315 4.8 4.8 0.00 0.03 0.03 64 1015.9
20260505215350 17 315 4.8 4.8 0.00 0.03 0.03 64 1015.9
20260505215248 17 315 4.8 6.4 0.00 0.03 0.03 65 1015.9
20260505214248 17 225 3.2 1.6 0.00 0.03 0.03 65 1015.9
20260505213748 17 270 1.6 6.4 0.00 0.03 0.03 65 1015.9
20260505213350 17 338 4.8 4.8 0.00 0.03 0.03 64 1015.9
20260505213248 17 315 6.4 3.2 0.00 0.03 0.03 64 1015.9
20260505212748 17 22 0.0 1.6 0.00 0.03 0.03 66 1015.9
20260505212248 17 225 1.6 0.0 0.00 0.03 0.03 66 1015.9
20260505211748 17 270 4.8 14.5 0.00 0.03 0.03 65 1015.9
20260505211351 17 22 4.8 4.8 0.00 0.03 0.03 65 1015.9
20260505211248 17 270 4.8 1.6 0.00 0.03 0.03 65 1015.9
20260505210748 17 292 4.8 4.8 0.00 0.03 0.03 66 1015.9
20260505210248 17 292 3.2 4.8 0.00 0.03 0.03 65 1015.9
20260505205748 17 338 4.8 1.6 0.00 0.03 0.03 65 1015.9
20260505205350 17 112 3.2 0.0 0.00 0.03 0.03 65 1015.9
20260505204748 17 315 1.6 0.0 0.00 0.03 0.03 66 1015.9
20260505203350 17 315 3.2 0.0 0.00 0.03 0.03 67 1015.9
20260505203248 17 338 3.2 1.6 0.00 0.03 0.03 66 1015.9
20260505202749 17 270 3.2 0.0 0.00 0.03 0.03 67 1015.9
20260505202248 17 315 3.2 1.6 0.00 0.03 0.03 66 1016.9
20260505201748 17 315 0.0 0.0 0.00 0.03 0.03 66 1016.9
20260505201350 17 270 4.8 6.4 0.00 0.03 0.03 65 1016.9
20260505201248 17 292 3.2 6.4 0.00 0.03 0.03 66 1016.9
20260505200748 17 22 0.0 0.0 0.00 0.03 0.03 67 1016.9
20260505195350 16 112 1.6 0.0 0.00 0.03 0.03 68 1016.9
20260505195248 16 270 3.2 0.0 0.00 0.03 0.03 68 1016.9
20260505194748 16 270 4.8 4.8 0.00 0.03 0.03 68 1016.9
20260505194248 16 338 1.6 4.8 0.00 0.03 0.03 70 1016.9
20260505193748 16 338 3.2 1.6 0.00 0.03 0.03 71 1016.9
20260505193349 16 248 0.0 0.0 0.00 0.03 0.03 71 1016.9
20260505193248 16 225 0.0 0.0 0.00 0.03 0.03 71 1016.9
20260505192748 16 225 0.0 0.0 0.00 0.03 0.03 73 1016.9
20260505192248 16 270 3.2 1.6 0.00 0.03 0.03 72 1016.9
20260505191748 16 270 1.6 0.0 0.00 0.03 0.03 75 1016.9
20260505191350 16 225 3.2 3.2 0.00 0.03 0.03 74 1016.9
20260505191248 16 270 4.8 1.6 0.00 0.03 0.03 75 1016.9
20260505190748 15 270 1.6 0.0 0.00 0.03 0.03 75 1016.9
20260505185748 15 270 1.6 0.0 0.00 0.03 0.03 76 1016.9
20260505185350 15 315 3.2 1.6 0.00 0.03 0.03 76 1016.9
20260505185248 15 292 4.8 3.2 0.00 0.03 0.03 76 1016.9
20260505184248 15 315 1.6 8.0 0.00 0.03 0.03 78 1016.9
20260505183748 15 292 1.6 4.8 0.00 0.03 0.03 77 1016.9
20260505183350 15 270 1.6 0.0 0.00 0.03 0.03 78 1016.9
20260505183248 15 315 1.6 1.6 0.00 0.03 0.03 78 1016.9
20260505182748 15 292 3.2 0.0 0.00 0.03 0.03 78 1016.9
20260505181748 15 315 3.2 0.0 0.00 0.03 0.03 80 1016.9
20260505181350 14 292 0.0 0.0 0.00 0.03 0.03 80 1016.9
20260505181248 14 315 0.0 0.0 0.00 0.03 0.03 80 1016.9
20260505180748 14 270 0.0 0.0 0.00 0.03 0.03 80 1016.9
20260505180248 14 202 0.0 0.0 0.00 0.03 0.03 80 1016.9
20260505175748 14 315 3.2 0.0 0.00 0.03 0.03 80 1016.9
20260505175350 14 270 0.0 0.0 0.00 0.03 0.03 82 1015.9
20260505175248 14 292 0.0 0.0 0.00 0.03 0.03 82 1015.9
20260505174748 14 292 0.0 0.0 0.00 0.03 0.03 81 1015.9
20260505174248 13 270 0.0 0.0 0.00 0.03 0.03 83 1015.9
20260505173748 13 270 0.0 1.6 0.00 0.03 0.03 82 1015.9
20260505173350 13 270 0.0 4.8 0.00 0.03 0.03 83 1015.9
20260505173248 13 270 0.0 0.0 0.00 0.03 0.03 83 1015.9
20260505172748 13 292 0.0 0.0 0.00 0.03 0.03 83 1015.9
20260505172248 13 338 0.0 0.0 0.00 0.03 0.03 83 1015.9
20260505171350 13 0 0.0 0.0 0.00 0.03 0.03 84 1015.9
20260505171248 13 45 0.0 0.0 0.00 0.03 0.03 84 1015.9
20260505170748 13 292 0.0 0.0 0.00 0.03 0.03 84 1015.9
20260505170248 13 292 0.0 0.0 0.00 0.03 0.03 84 1015.9
20260505165350 13 315 0.0 0.0 0.00 0.03 0.03 85 1015.9
20260505165248 13 315 0.0 0.0 0.00 0.03 0.03 85 1015.9
20260505164748 13 270 0.0 0.0 0.00 0.03 0.03 86 1015.9
20260505164248 13 180 0.0 0.0 0.00 0.03 0.03 86 1015.9
20260505163748 13 180 0.0 0.0 0.00 0.03 0.03 87 1015.9
20260505163350 13 180 0.0 0.0 0.00 0.03 0.03 87 1015.9
20260505163248 13 180 0.0 0.0 0.00 0.03 0.03 87 1015.9
20260505162748 13 135 0.0 0.0 0.00 0.03 0.03 87 1015.9
20260505162248 12 202 0.0 0.0 0.00 0.03 0.03 87 1015.9
20260505161748 12 112 0.0 0.0 0.00 0.03 0.03 87 1015.9
20260505161350 12 90 0.0 0.0 0.00 0.03 0.03 87 1015.9
20260505161248 12 90 0.0 0.0 0.00 0.03 0.03 87 1015.9
20260505160748 12 112 0.0 0.0 0.00 0.03 0.03 87 1015.9
20260505160248 12 68 0.0 0.0 0.00 0.03 0.03 87 1015.9
20260505153350 12 90 0.0 0.0 0.00 0.03 0.03 88 1015.9
20260505152748 12 90 0.0 0.0 0.00 0.03 0.03 88 1015.9
20260505151748 12 68 0.0 0.0 0.00 0.03 0.03 88 1015.9
20260505151350 12 45 0.0 0.0 0.00 0.03 0.03 88 1015.9
20260505150748 12 135 0.0 0.0 0.00 0.03 0.03 88 1015.9
20260505150248 12 112 0.0 0.0 0.00 0.03 0.03 88 1015.9
20260505130248 12 202 0.0 0.0 0.00 0.03 0.03 88 1014.9
20260505124748 12 202 0.0 0.0 0.00 0.03 0.03 88 1014.9
20260505124248 12 202 0.0 0.0 0.00 0.03 0.03 88 1014.9
20260505123748 12 180 0.0 0.0 0.00 0.03 0.03 88 1014.9
20260505123350 12 112 0.0 0.0 0.00 0.03 0.03 87 1014.9
20260505123248 12 112 0.0 0.0 0.00 0.03 0.03 87 1014.9
20260505122248 12 180 0.0 0.0 0.00 0.03 0.03 88 1014.9
20260505121748 12 135 0.0 0.0 0.00 0.03 0.03 87 1014.9
20260505121350 12 135 0.0 0.0 0.00 0.03 0.03 87 1014.9
20260505120248 12 248 0.0 0.0 0.00 0.03 0.03 87 1014.9
20260505115748 12 225 0.0 0.0 0.00 0.03 0.03 87 1014.9
20260505115350 12 225 0.0 0.0 0.00 0.03 0.03 87 1014.9
20260505115248 12 225 0.0 0.0 0.00 0.03 0.03 87 1014.9
20260505114748 12 225 0.0 0.0 0.00 0.03 0.03 87 1014.9
20260505114248 12 248 0.0 0.0 0.00 0.03 0.03 87 1014.9
20260505113748 12 270 0.0 0.0 0.00 0.03 0.03 87 1014.9
20260505113350 12 270 0.0 0.0 0.00 0.03 0.03 87 1014.9
20260505113248 12 270 0.0 0.0 0.00 0.03 0.03 87 1014.9
20260505112748 12 270 0.0 0.0 0.00 0.03 0.03 87 1014.9
20260505112248 12 225 0.0 0.0 0.00 0.03 0.03 86 1014.9
20260505111748 12 225 0.0 0.0 0.00 0.03 0.03 86 1014.9
20260505111350 12 202 0.0 0.0 0.00 0.03 0.03 86 1014.9
20260505111248 12 202 0.0 0.0 0.00 0.03 0.03 85 1014.9
20260505110748 12 22 0.0 0.0 0.00 0.03 0.03 85 1014.9
20260505110248 12 0 0.0 0.0 0.00 0.03 0.03 85 1014.9
20260505101748 12 135 0.0 0.0 0.00 0.00 0.00 82 1014.9
20260505101349 12 135 0.0 0.0 0.00 0.00 0.00 81 1014.9
20260505101248 12 135 0.0 0.0 0.00 0.00 0.00 81 1014.9
20260505100748 12 202 0.0 0.0 0.00 0.00 0.00 80 1014.9
20260505100248 12 270 0.0 0.0 0.00 0.00 0.00 80 1014.9
20260505095748 12 248 0.0 0.0 0.00 0.00 0.00 78 1014.9
20260505095350 12 315 0.0 0.0 0.00 0.00 0.00 77 1014.9
20260505095248 12 270 0.0 0.0 0.00 0.00 0.00 77 1014.9
20260505094748 12 270 0.0 0.0 0.00 0.00 0.00 77 1014.9
20260505094248 12 270 0.0 0.0 0.00 0.00 0.00 78 1014.9
20260505093748 12 270 0.0 0.0 0.00 0.00 0.00 78 1014.9
20260505093350 12 270 0.0 0.0 0.00 0.00 0.00 78 1014.9
20260505093248 12 270 0.0 0.0 0.00 0.00 0.00 79 1014.9
20260505092748 12 270 0.0 0.0 0.00 0.00 0.00 79 1014.9
20260505092248 12 225 0.0 0.0 0.00 0.00 0.00 78 1015.9
20260505091351 12 248 0.0 0.0 0.00 0.00 0.00 77 1015.9
20260505091248 12 225 0.0 0.0 0.00 0.00 0.00 77 1015.9
20260505090248 12 248 0.0 0.0 0.00 0.00 0.00 77 1015.9
20260505085350 12 248 0.0 0.0 0.00 0.00 0.00 76 1015.9
20260505085248 12 248 0.0 0.0 0.00 0.00 0.00 76 1015.9
20260505084748 12 248 0.0 0.0 0.00 0.00 0.00 76 1015.9
20260505083748 12 248 0.0 0.0 0.00 0.00 0.00 76 1015.9
20260505083351 12 270 0.0 0.0 0.00 0.00 0.00 76 1015.9
20260505083248 12 270 0.0 0.0 0.00 0.00 0.00 76 1015.9
20260505082748 12 270 0.0 0.0 0.00 0.00 0.00 76 1015.9
20260505082248 12 270 0.0 0.0 0.00 0.00 0.00 76 1015.9
20260505081748 12 292 0.0 0.0 0.00 0.00 0.00 75 1015.9
20260505081350 12 270 0.0 0.0 0.00 0.00 0.00 75 1015.9
20260505080748 12 270 0.0 0.0 0.00 0.00 0.00 75 1015.9
20260505080248 12 292 1.6 0.0 0.00 0.00 0.00 76 1015.9
20260505075350 12 270 1.6 0.0 0.00 0.00 0.00 74 1015.9
20260505074748 12 270 0.0 3.2 0.00 0.00 0.00 74 1015.9
20260505074248 12 270 0.0 0.0 0.00 0.00 0.00 73 1015.9
20260505073748 13 270 0.0 0.0 0.00 0.00 0.00 72 1015.9
20260505073350 13 270 0.0 0.0 0.00 0.00 0.00 72 1015.9
20260505073248 13 315 0.0 0.0 0.00 0.00 0.00 72 1015.9
20260505072748 13 292 0.0 3.2 0.00 0.00 0.00 73 1015.9
20260505072248 13 270 0.0 3.2 0.00 0.00 0.00 74 1015.9
20260505071748 13 270 0.0 0.0 0.00 0.00 0.00 73 1015.9
20260505071350 13 338 1.6 1.6 0.00 0.00 0.00 73 1015.9
20260505071248 13 338 0.0 0.0 0.00 0.00 0.00 72 1015.9
20260505070748 13 315 0.0 0.0 0.00 0.00 0.00 73 1015.9
20260505065748 13 248 0.0 0.0 0.00 0.00 0.00 74 1015.9
20260505065350 13 270 0.0 0.0 0.00 0.00 0.00 74 1015.9
20260505065248 13 270 0.0 0.0 0.00 0.00 0.00 74 1015.9
20260505064748 13 248 0.0 0.0 0.00 0.00 0.00 74 1015.9
20260505064248 13 270 0.0 1.6 0.00 0.00 0.00 74 1015.9
20260505063748 13 270 0.0 0.0 0.00 0.00 0.00 74 1015.9
20260505063351 13 315 0.0 0.0 0.00 0.00 0.00 74 1015.9
20260505063248 13 292 0.0 0.0 0.00 0.00 0.00 74 1015.9
20260505062748 13 270 0.0 0.0 0.00 0.00 0.00 74 1015.9
20260505062248 13 292 0.0 0.0 0.00 0.00 0.00 74 1015.9
20260505061748 13 292 0.0 0.0 0.00 0.00 0.00 74 1015.9
20260505061350 13 292 1.6 0.0 0.00 0.00 0.00 74 1015.9
20260505061248 13 292 1.6 1.6 0.00 0.00 0.00 74 1015.9
20260505060248 13 270 0.0 0.0 0.00 0.00 0.00 75 1015.9
20260505055350 13 270 0.0 0.0 0.00 0.00 0.00 75 1015.9
20260505055248 13 248 0.0 0.0 0.00 0.00 0.00 75 1015.9
20260505054748 13 158 0.0 0.0 0.00 0.00 0.00 75 1015.9
20260505054248 13 315 0.0 3.2 0.00 0.00 0.00 74 1015.9
20260505053748 13 292 4.8 6.4 0.00 0.00 0.00 74 1015.9
20260505053350 13 338 0.0 3.2 0.00 0.00 0.00 75 1015.9
20260505052748 13 315 0.0 0.0 0.00 0.00 0.00 76 1015.9
20260505051748 13 315 1.6 9.7 0.00 0.00 0.00 75 1015.9
20260505051350 13 270 3.2 6.4 0.00 0.00 0.00 76 1015.9
20260505051248 13 270 1.6 6.4 0.00 0.00 0.00 76 1015.9
20260505050748 13 315 3.2 1.6 0.00 0.00 0.00 77 1015.9
20260505050248 13 248 4.8 1.6 0.00 0.00 0.00 77 1015.9
20260505041749 13 292 0.0 0.0 0.00 0.00 0.00 75 1015.9
20260505041351 13 292 0.0 0.0 0.00 0.00 0.00 75 1015.9
20260505040748 13 270 0.0 0.0 0.00 0.00 0.00 75 1014.9
20260505040248 13 292 0.0 0.0 0.00 0.00 0.00 75 1014.9
20260505035748 13 315 0.0 0.0 0.00 0.00 0.00 75 1014.9
20260505035350 13 292 0.0 0.0 0.00 0.00 0.00 75 1014.9
20260505035248 14 270 0.0 0.0 0.00 0.00 0.00 75 1014.9
20260505034248 14 315 0.0 0.0 0.00 0.00 0.00 75 1014.9
20260505033748 14 292 4.8 3.2 0.00 0.00 0.00 75 1014.9
20260505033350 14 315 4.8 11.3 0.00 0.00 0.00 75 1014.9
20260505032748 14 292 1.6 0.0 0.00 0.00 0.00 74 1014.9
20260505032248 14 315 0.0 0.0 0.00 0.00 0.00 73 1014.9
20260505031748 14 270 4.8 4.8 0.00 0.00 0.00 72 1014.9
20260505031350 14 315 0.0 0.0 0.00 0.00 0.00 72 1014.9
20260505031248 14 248 0.0 0.0 0.00 0.00 0.00 72 1014.9
20260505030748 14 270 0.0 0.0 0.00 0.00 0.00 72 1014.9
20260505030249 15 270 0.0 0.0 0.00 0.00 0.00 71 1014.9
20260505025748 15 248 0.0 0.0 0.00 0.00 0.00 70 1014.9
20260505025350 15 248 0.0 0.0 0.00 0.00 0.00 70 1014.9
20260505025248 15 270 0.0 0.0 0.00 0.00 0.00 70 1014.9
20260505024748 15 270 3.2 0.0 0.00 0.00 0.00 69 1014.9
20260505024248 15 292 1.6 3.2 0.00 0.00 0.00 68 1014.9
20260505023748 15 270 3.2 0.0 0.00 0.00 0.00 68 1014.9
20260505023248 15 338 6.4 0.0 0.00 0.00 0.00 67 1014.9
20260505022748 15 270 0.0 0.0 0.00 0.00 0.00 66 1014.9